Weather History for Lanseria, South Africa

Change the Weather History Date:

Sunday, March 16, 2014

  Actual Average Record
Temperature  
Mean Temperature 68 °F -  
Max Temperature 80 °F - - ()
Min Temperature 57 °F - - ()
Cooling Degree Days 4    
Growing Degree Days 18 (Base 50)    
Moisture  
Dew Point 60 °F    
Average Humidity 77    
Maximum Humidity 100    
Minimum Humidity 48    
Precipitation  
Precipitation 0.00 in - - ()
Sea Level Pressure  
Sea Level Pressure 30.22 in    
Wind  
Wind Speed 4 mph ()    
Max Wind Speed 13 mph    
Max Gust Speed -    
Visibility 5.7 miles    
Events      
T = Trace of Precipitation, MM = Missing Value Source: Averaged Metar Reports

Daily Weather History Graph

Daily Weather History Graph

Search for Another Location

Airport:

Trip Planner

Search our weather history database for the weather conditions in past years. The results will help you decide how hot, cold, wet, or windy it might be!

Date:

Astronomy

Mar. 16, 2014 Rise Set
Actual Time 6:09 AM SAST 6:23 PM SAST
Civil Twilight 5:46 AM SAST 6:46 PM SAST
Nautical Twilight 5:19 AM SAST 7:13 PM SAST
Astronomical Twilight 4:52 AM SAST 7:40 PM SAST
Moon 6:09 PM SAST (3/16) 5:45 AM SAST (3/16)
Length of Visible Light 12h 59m
Length of Day
12h 13m
Full, 100% of the Moon is Illuminated
Mar 16
Full
Mar 16
Full
Mar 24
Last Quarter
Mar 30
New
Apr 7
First Quarter

Hourly Weather History & Observations

Time (SAST) Temp. Heat Index Dew Point Humidity Pressure Visibility Wind Dir Wind Speed Gust Speed Precip Events Conditions
12:00 AM 62.6 °F - 60.8 °F 94% 30.24 in - Calm Calm - N/A   Unknown
1:00 AM 60.8 °F - 60.8 °F 100% 30.24 in - South 4.6 mph - N/A   Unknown
2:00 AM 59.0 °F - 59.0 °F 100% 30.24 in - Calm Calm - N/A   Unknown
3:00 AM 57.2 °F - 57.2 °F 100% 30.21 in - SSW 5.8 mph - N/A   Unknown
4:00 AM 57.2 °F - 57.2 °F 100% 30.24 in - South 5.8 mph - N/A   Unknown
5:00 AM 57.2 °F - 57.2 °F 100% 30.24 in - South 4.6 mph - N/A   Unknown
6:00 AM 57.2 °F - 57.2 °F 100% 30.24 in 3.7 mi Variable 2.3 mph - N/A   Unknown
7:00 AM 59.0 °F - 57.2 °F 94% 30.24 in 4.3 mi Calm Calm - N/A   Unknown
8:00 AM 62.6 °F - 59.0 °F 88% 30.27 in 5.0 mi Calm Calm - N/A   Unknown
8:12 AM 66.2 °F - 60.8 °F 83% 30.27 in 5.0 mi Calm Calm - N/A   Unknown
9:00 AM 68.0 °F - 60.8 °F 78% 30.27 in 5.6 mi Calm Calm - N/A   Unknown
9:30 AM 71.6 °F - 60.8 °F 69% 30.27 in 5.6 mi Calm Calm - N/A   Partly Cloudy
10:00 AM 73.4 °F - 60.8 °F 65% 30.27 in 5.6 mi Variable 5.8 mph - N/A   Partly Cloudy
11:00 AM 77.0 °F - 60.8 °F 57% 30.27 in 6.2 mi North 9.2 mph - N/A   Partly Cloudy
12:00 PM 78.8 °F - 60.8 °F 54% 30.24 in 6.2 mi WNW 8.1 mph - N/A   Partly Cloudy
1:00 PM 80.6 °F 81.1 °F 59.0 °F 48% 30.21 in 6.2 mi NNW 12.7 mph - N/A   Partly Cloudy
2:00 PM 78.8 °F - 59.0 °F 51% 30.21 in 6.2 mi NW 10.4 mph - N/A   Partly Cloudy
3:00 PM 80.6 °F 81.1 °F 59.0 °F 48% 30.18 in 6.2 mi NW 9.2 mph - N/A   Partly Cloudy
4:00 PM 78.8 °F - 60.8 °F 54% 30.18 in 6.2 mi NW 10.4 mph - N/A   Partly Cloudy
5:00 PM 77.0 °F - 60.8 °F 57% 30.15 in 6.2 mi WNW 6.9 mph - N/A   Partly Cloudy
6:00 PM 75.2 °F - 62.6 °F 65% 30.15 in 6.2 mi NW 3.5 mph - N/A   Partly Cloudy
7:00 PM 73.4 °F - 62.6 °F 69% 30.15 in 6.2 mi NW 3.5 mph - N/A   Partly Cloudy
8:00 PM 71.6 °F - 62.6 °F 73% 30.18 in - West 2.3 mph - N/A   Clear
9:00 PM 69.8 °F - 62.6 °F 78% 30.21 in - SSW 5.8 mph - N/A   Clear
10:00 PM 66.2 °F - 60.8 °F 83% 30.21 in - SSW 9.2 mph - N/A   Clear
11:00 PM 66.2 °F - 60.8 °F 83% 30.21 in - South 6.9 mph - N/A   Unknown